Location: Cheyres
(46.8153°N, 6.7877°E)
Time: 20:46:58
(UTC+00:00)

CUBESAT XI-V - Visible Passes

Search period start: 28 June 2022 00:00
Search period end: 08 July 2022 00:00
Orbit: 666 x 692 km, 98.1° (Epoch: 28 June)

Date Brightness Start Highest point End Pass type
(mag) Time Alt. Az. Time Alt. Az. Time Alt. Az.
28 Jun ? 01:10:00 22° SSE 01:12:56 87° ENE 01:17:35 10° NNW visible
28 Jun ? 02:49:29 10° WSW 02:50:51 11° W 02:52:14 10° WNW visible
29 Jun ? 00:07:47 10° ESE 00:11:28 24° ENE 00:15:09 10° N visible
29 Jun ? 01:45:56 22° SSW 01:48:32 42° W 01:52:55 10° NNW visible
30 Jun ? 00:43:30 18° SE 00:46:45 49° ENE 00:51:11 10° N visible
30 Jun ? 02:21:54 14° SW 02:24:18 20° W 02:27:41 10° NW visible
30 Jun ? 23:42:59 10° E 23:45:31 15° ENE 23:48:02 10° NNE visible
01 Jul ? 01:19:27 24° S 01:22:13 77° WSW 01:26:49 10° NNW visible
02 Jul ? 00:17:00 11° ESE 00:20:39 29° ENE 00:24:35 10° N visible
02 Jul ? 01:55:24 21° SSW 01:57:50 35° W 02:02:03 10° NNW visible
03 Jul ? 00:52:58 21° SSE 00:55:59 60° ENE 01:00:30 10° N visible
03 Jul ? 02:31:21 12° WSW 02:33:39 16° W 02:36:34 10° NW visible
03 Jul ? 23:51:38 10° ESE 23:54:39 18° ENE 23:57:40 10° NNE visible
04 Jul ? 01:28:55 25° S 01:31:28 62° WSW 01:36:02 10° NNW visible
05 Jul ? 00:26:28 14° SE 00:29:50 34° ENE 00:33:59 10° N visible
05 Jul ? 02:04:52 19° SW 02:07:09 28° W 02:11:08 10° NW visible
05 Jul ? 23:27:51 10° ENE 23:28:44 10° NE 23:29:39 10° NE visible
06 Jul ? 01:02:25 24° SSE 01:05:12 74° ENE 01:09:48 10° N visible
06 Jul ? 02:40:49 10° WSW 02:43:01 13° W 02:45:14 10° WNW visible
07 Jul ? 00:00:24 10° ESE 00:03:47 21° ENE 00:07:11 10° NNE visible
07 Jul ? 01:38:23 26° SSW 01:40:45 50° W 01:45:14 10° NNW visible
